Location: Plum Point
(34.9795°N, 89.9548°W)
Time: 21:40:51
(UTC+00:00)

Tiangong - Visible Passes

Search period start: 20 May 2025 00:00
Search period end: 30 May 2025 00:00
Orbit: 377 x 385 km, 41.5° (Epoch: 20 May)

Date Brightness Start Highest point End Pass type
(mag) Time Alt. Az. Time Alt. Az. Time Alt. Az.
20 May 0.2 08:21:57 24° N 08:21:57 24° N 08:24:12 10° NE visible
20 May -0.4 09:55:53 10° NW 09:58:47 32° NNE 10:01:41 10° E visible
21 May 0.0 08:56:08 16° NW 08:57:51 26° N 09:00:35 10° ENE visible
22 May 0.8 07:58:17 17° NE 07:58:17 17° NE 07:59:30 10° ENE visible
22 May -1.0 09:31:00 10° NW 09:34:04 44° NNE 09:37:06 10° E visible
23 May -0.4 08:32:47 30° N 08:33:05 31° NNE 08:35:57 10° ENE visible
23 May -2.2 10:06:51 10° WNW 10:09:59 62° SSW 10:13:06 10° SE visible
24 May -1.9 09:07:39 29° NW 09:09:06 70° NNE 09:12:14 10° ESE visible
25 May 0.9 08:10:49 12° E 08:10:49 12° E 08:11:07 10° E visible
25 May -1.4 09:43:03 19° W 09:44:47 33° SSW 09:47:40 10° SSE visible
26 May -0.4 02:13:40 10° SSW 02:15:03 17° S 02:15:03 17° S visible
26 May 0.6 08:46:51 11° SE 08:46:51 11° SE 08:47:01 10° SE visible
27 May -2.2 02:48:28 10° WSW 02:51:20 68° SSW 02:51:20 68° SSW visible
28 May -1.6 01:47:41 10° SW 01:50:36 37° SSE 01:53:31 10° E visible
28 May -0.6 03:24:22 10° W 03:26:52 36° NW 03:26:52 36° NW visible
29 May -1.7 02:23:05 10° WSW 02:26:10 63° NNW 02:29:16 10° ENE visible
29 May 0.8 04:00:35 10° WNW 04:01:43 17° NW 04:01:43 17° NW visible
